Location: Oro Verde
(31.8170°S, 60.5170°W)
Time: 08:33:51
(UTC-03:00)

ISS - Visible Passes

Search period start: 22 May 2019 00:00
Search period end: 01 June 2019 00:00
Orbit: 407 x 410 km, 51.6° (Epoch: 22 May)

Date Brightness Start Highest point End Pass type
(mag) Time Alt. Az. Time Alt. Az. Time Alt. Az.
23 May -2.1 06:39:41 10° NNW 06:42:47 36° NE 06:45:54 10° ESE visible
24 May -0.9 05:49:56 11° NNE 05:52:02 17° NE 05:54:20 10° E visible
25 May -3.8 06:35:47 26° WNW 06:37:27 64° SW 06:40:48 10° SE visible
26 May -1.7 05:48:13 26° ESE 05:48:13 26° ESE 05:49:51 10° SE visible
26 May -1.8 07:21:32 10° WSW 07:23:22 14° SSW 07:25:12 10° S visible
27 May -2.1 06:33:04 21° SSW 06:33:04 21° SSW 06:35:01 10° SSE visible
